Location: Boitzum
(52.1496°N, 9.6943°E)
Time: 06:35:16
(UTC+00:00)

Cosmos 1269 Rocket - Pass Details

Date: 13 January 2026
Orbit: 769 x 775 km, 74.1° (Epoch: 18 February)

Event Time Altitude Azimuth Distance (km) Brightness Sun altitude
Rises 05:46:53 0° 196° (SSW) 3,239 7.3 -14.3°
Reaches altitude 10° 05:49:15 10° 195° (SSW) 2,316 6.5 -13.9°
Maximum altitude 05:54:29 73° 112° (ESE) 815 4.3 -13.2°
Drops below altitude 10° 05:59:47 10° 28° (NNE) 2,334 6.6 -12.4°
Sets 06:02:10 0° 27° (NNE) 3,266 7.4 -12.0°
